Location: Sungai Jaoh
(2.9167°N, 113.9167°E)
Time: 14:20:59
(UTC+00:00)

ARIANE 5 R/B - Pass Details

Date: 30 November 2020
Orbit: 295 x 32862 km, 6.4° (Epoch: 25 January)

Event Time Altitude Azimuth Distance (km) Brightness Sun altitude
Rises 11:51:49 0° 262° (W) 5,155 8.0 -23.9°
Reaches altitude 10° 11:56:58 10° 261° (W) 2,525 6.2 -25.1°
Enters shadow 12:00:26 38° 252° (WSW) 713 2.8 -25.9°
